Theta_e
338 339 340 340 339 339 340 341 340 339 338 337 337 334 334 333 332 331 331 331 330 328 327 326 325 326 327
339 332 334 336 336 336 335 334 333 334 334 334 332 334 333 332 332 331 330 330 328 327 326 325 324 326 327
336 333 330 330 331 330 330 329 330 334 333 333 329 333 333 332 331 329 327 325 325 325 324 324 324 327 326
333 334 333 333 335 333 333 333 333 333 332 330 324 325 327 329 329 327 325 325 325 326 326 325 327 327 326
332 332 331 330 332 333 334 334 333 332 331 331 328 328 327 323 327 327 327 327 327 327 327 327 327 327 326
332 331 330 328 329 330 332 332 330 328 328 328 327 329 331 331 329 329 328 328 327 327 327 326 327 327 328
329 329 329 328 327 329 330 330 329 328 327 328 328 329 330 330 329 329 328 328 327 327 327 327 327 328 328
328 328 328 328 328 328 330 331 331 330 329 329 330 330 330 330 330 329 328 328 327 327 326 327 328 328 327
330 329 328 327 327 328 329 331 330 330 330 330 330 330 330 331 330 329 328 327 327 327 326 327 327 326 325
331 330 329 328 328 329 330 331 331 330 329 329 329 329 330 330 329 328 326 324 325 324 324 326 326 326 324
332 331 331 330 328 329 330 331 331 331 330 330 329 329 329 329 329 327 325 326 324 322 323 323 324 324 321
334 332 332 331 330 330 331 332 333 332 330 329 328 328 328 328 326 326 324 327 326 325 321 321 323 322 320
331 329 329 328 329 330 333 334 333 331 330 329 328 328 328 326 326 325 326 325 326 325 321 320 319 320 317
328 329 329 329 330 330 333 334 334 332 331 328 329 327 327 324 325 324 323 324 323 323 317 317 312 314 316
327 328 328 331 332 330 331 334 334 332 331 330 327 328 327 326 327 326 325 323 321 321 320 316 310 307 306
328 327 328 328 327 330 332 334 333 333 331 330 328 327 327 329 327 328 325 324 321 319 318 315 315 311 302
Wind_Speed
9 11 11 9 9 7 9 12 15 13 13 12 12 12 12 12 11 11 10 11 10 9 8 7 6 9 8
9 10 10 11 10 11 11 12 14 12 11 11 10 10 10 10 10 9 8 7 7 7 6 5 5 9 8
12 9 9 8 8 10 8 6 10 8 8 9 10 8 8 8 7 7 6 3 2 5 3 3 8 5 6
9 10 9 9 9 8 8 7 4 5 7 8 7 6 6 5 5 4 2 3 6 3 2 4 5 5 5
9 7 5 5 4 4 6 5 5 6 6 4 4 5 5 5 3 4 1 3 4 4 5 5 5 5 4
8 7 7 6 5 5 5 5 4 3 3 3 2 3 2 1 2 2 2 3 3 3 4 5 5 5 4
10 8 8 7 6 7 6 6 5 5 4 4 3 2 2 1 1 1 2 2 2 3 4 4 5 5 6
10 9 7 7 7 6 6 6 6 5 5 4 4 3 2 1 1 1 3 3 3 2 4 4 5 5 5
11 9 7 7 7 6 6 7 7 5 5 4 3 3 2 2 1 1 2 2 3 3 4 3 3 5 5
10 9 7 7 6 6 6 7 8 7 6 5 4 3 2 2 2 1 3 4 3 3 4 5 4 4 5
11 8 8 8 7 7 6 6 9 8 8 5 3 2 3 2 2 2 2 2 4 4 4 5 3 4 4
11 8 7 7 8 8 8 8 9 7 8 6 5 5 3 2 3 2 2 2 2 2 5 4 4 3 3
9 9 8 8 8 7 7 8 10 9 10 7 6 6 6 5 3 3 2 3 1 2 4 2 4 4 4
10 8 8 9 8 8 7 9 11 10 11 9 8 6 6 3 4 5 4 1 1 2 3 3 2 3 3
15 10 8 8 7 8 8 8 10 12 11 10 9 6 6 5 5 6 6 5 2 1 1 2 2 1 1
17 13 16 11 10 9 10 9 9 12 12 11 9 8 8 6 7 4 4 2 3 3 2 1 1 2 1
Wind_Direction
89 98 99 90 109 111 80 115 106 87 86 84 89 92 88 84 78 72 72 68 69 65 52 38 6 336 54
128 77 82 85 66 75 71 85 89 92 101 103 101 83 94 90 82 73 72 71 73 65 47 10 310 296 49
128 116 107 100 109 111 116 130 167 133 118 91 66 78 86 90 89 78 75 81 138 118 90 306 300 36 36
130 161 149 144 162 155 160 180 123 108 63 95 98 97 90 104 106 96 134 238 251 35 78 240 35 13 36
157 154 155 170 157 167 156 161 130 131 159 168 141 161 148 209 158 188 144 43 31 7 16 23 15 7 14
164 173 164 163 165 168 168 162 153 151 151 145 134 128 149 61 88 32 63 31 12 28 23 2 9 3 8
174 177 171 167 177 174 168 175 176 160 159 160 149 149 112 137 84 61 39 22 11 13 9 358 359 360 9
188 178 173 172 181 177 178 174 184 169 165 159 166 158 159 165 97 21 17 356 353 11 341 3 351 8 23
194 183 182 178 178 189 183 174 182 188 172 181 175 178 153 150 211 222 290 279 306 1 334 344 349 33 28
206 185 186 182 195 191 187 185 185 188 184 189 177 190 167 207 223 225 311 329 341 338 339 352 355 61 84
229 196 197 192 201 199 201 197 188 190 192 186 187 188 186 220 228 292 278 308 308 334 350 337 7 99 92
204 207 203 201 205 203 204 204 191 192 186 184 182 185 200 207 226 228 276 280 306 313 325 317 75 101 83
193 195 205 204 207 211 207 199 201 194 196 194 192 192 189 203 203 218 270 273 210 335 297 52 131 144 78
190 198 203 208 210 215 202 206 213 197 198 197 203 192 191 188 205 195 201 208 112 340 328 299 179 150 157
195 192 201 208 212 216 210 205 205 205 201 197 194 192 183 194 213 203 199 198 172 134 56 304 218 241 110
198 196 196 199 196 205 210 205 202 205 205 205 198 194 197 202 218 188 167 180 152 197 136 222 310 11 281